Location: *
(35.2348°S, 91.3916°E)
Time: 02:06:49
(UTC+00:00)

Cosmos 1242 Rocket - Pass Details

Date: 23 October 2019
Orbit: 449 x 488 km, 81.2° (Epoch: 12 November)

Event Time Altitude Azimuth Distance (km) Brightness Sun altitude
Rises 12:44:15 0° 338° (NNW) 2,501 6.2 -6.4°
Reaches altitude 10° 12:46:25 10° 331° (NNW) 1,627 5.4 -6.8°
Maximum altitude 12:49:48 41° 259° (W) 696 4.1 -7.5°
Drops below altitude 10° 12:53:11 10° 187° (S) 1,632 5.6 -8.1°
Sets 12:55:22 0° 179° (S) 2,511 6.5 -8.5°
